sat.trackr.live / text

‹ back to catalog

STARLINK-32943

NORAD 63023 · 2025-032U

PAYLOAD ACTIVE UNKNOWN

§ Identity

Operator
Country
US
Launch date
2025-02-15
Launch site
AFETR
Launch vehicle
Mass (kg)
RCS (m²)

Purposes: comms

External: N2YO · Heavens-Above · Gunter

§ Orbital elements

Epoch: 2026-09-21T09:39:43.637760Z

Period
94.27 min
Inclination
43.0019°
Eccentricity
0.0001577
Mean motion
15.27594659 rev/d
Perigee alt
481.9 km
Apogee alt
484.1 km
Semi-major
6,861.1 km
B*
4.0408e-4
RAAN
310.6065°
Arg perigee
272.5594°
Mean anomaly
87.5077°
Rev number
9,055

§ Raw data

STARLINK-329431 63023U 25032U   26264.40258840  .00010879  00000+0  40408-3 0  99902 63023  43.0019 310.6065 0001577 272.5594  87.5077 15.27594659 90554

JSON: /api/v1/satellites/63023 · /tle

For live sub-satellite position, see the globe view (requires WebGL).

§ Visibility from observer

Set your observer location to see the next 7 days of passes ≥ 10°. The values pass through the URL so the page stays shareable.

No JS? Fill the form by hand. The geolocation button needs JavaScript.